[[{"header":{"parameterUnit":"m.s-1","parameterCategory":1,"la1":30.2991,"la2":30.254,"lo1":-89.0895,"lo2":-89.0444,"dy":0.0017,"dx":0.0017,"nx":28,"ny":28,"refTime":"2023-03-21T21:00:00:Z","depth":0,"parameterNumber":2,"parameterNumberName":"U-component_of_WINDS"},"data":[0,0,0,0,0,0,0,0,0,0,0,0,0,0,0,0,0,0,0,0,0,0,0,0,0,0,0,0,0,0,0,0,0,0,0,0,0,0,0,0,0,0,0,0,0,0,0,0,0,0,0,0,0,0,0,0,0,0,-3.931,-3.9311,0,-3.9324,-3.9325,-3.9325,-3.9233,-3.923,-3.9227,-3.9225,-3.924,-3.9243,-3.9245,0,0,0,0,0,0,0,0,0,0,0,0,0,-3.9205,-3.9208,-3.931,-3.9311,-3.9311,-3.9324,-3.9325,-3.9325,-3.9233,-3.923,-3.9227,-3.9224,-3.9239,-3.9242,-3.9246,0,0,0,0,0,0,0,0,0,0,0,0,0,-3.9238,-3.9208,-3.931,-3.9267,-3.9263,-3.9324,-3.9325,-3.9325,-3.9234,-3.923,-3.9226,-3.9222,-3.9238,-3.9242,-3.9246,-3.9351,0,0,-3.9259,-3.9261,0,0,0,0,0,0,0,0,-3.9237,-3.9242,-3.9273,-3.927,-3.9266,-3.9273,-3.9293,-3.9333,-3.9235,-3.9245,-3.9225,-3.922,-3.9254,-3.9257,-3.9268,-3.9351,-3.9352,-3.9259,-3.9262,-3.9264,-3.9265,0,0,0,0,0,0,0,-3.9234,-3.9241,-3.9316,-3.9273,-3.9269,-3.9247,-3.9247,-3.93,-3.9271,-3.9244,-3.9237,-3.924,-3.9251,-3.9264,-3.9268,-3.9352,-3.9259,-3.9263,-3.9266,-3.9267,-3.9522,-3.9526,0,0,0,0,0,0,-3.9238,-3.924,-3.9315,-3.9316,-3.9241,-3.9252,-3.9252,-3.9274,-3.927,-3.9266,-3.9243,-3.9236,-3.9259,-3.9263,-3.9268,-3.9389,-3.9264,-3.9268,-3.927,-3.9517,-3.9523,-3.9527,0,0,0,0,0,0,-3.9236,-3.9245,-3.9315,-3.9276,-3.9283,-3.9258,-3.9283,-3.9277,-3.9289,-3.927,-3.9264,-3.9261,-3.9256,-3.9262,-3.933,-3.9388,-3.927,-3.9274,-3.9512,-3.9519,-3.9525,-3.9632,0,0,0,0,0,0,-3.9233,-3.9245,-3.9284,-3.9278,-3.9286,-3.9377,-3.9287,-3.928,-3.9297,-3.9287,-3.9286,-3.9282,-3.9253,-3.9325,-3.9335,-3.9392,-3.9277,-3.9507,-3.9515,-3.9523,-3.9623,-3.9641,-3.9657,0,0,0,0,0,-3.923,-3.9314,-3.9287,-3.9296,-3.9334,-3.9381,-3.9385,-3.9351,-3.9302,-3.9341,-3.9329,-3.9282,-3.9381,-3.9333,-3.9343,-3.9402,-3.9503,-3.9513,-3.9522,-3.9616,-3.9638,-3.9656,0,0,0,0,0,0,-3.9328,-3.9312,-3.9282,-3.9366,-3.9376,-3.9365,-3.9413,-3.9375,-3.9398,-3.9388,-3.9345,-3.9345,-3.9421,-3.9419,-3.9365,-3.9503,-3.9433,-3.9446,-3.9501,-3.9522,-3.9538,-3.9536,-3.928,0,0,0,0,0,-3.9359,-3.9398,-3.9383,-3.9459,-3.9465,-3.9439,-3.9458,-3.9431,-3.9438,-3.9442,-3.9434,-3.9444,-3.9477,-3.95,-3.9529,-3.9624,-3.9621,-3.967,-3.9686,-3.97,-3.971,-3.9759,-3.978,-3.9558,-3.9558,-3.9558,0,0,-3.9424,-3.9421,-3.9448,-3.9479,-3.9482,-3.9524,-3.9443,-3.949,-3.952,-3.9449,-3.9512,-3.9508,-3.9516,-3.9598,-3.9634,-3.9598,-3.9772,-3.9712,-3.9723,-3.9726,-3.9771,-3.9792,-3.9811,-3.9565,-3.9563,-3.9562,0,0,-3.9563,-3.9566,-3.9628,-3.9634,-3.9642,-3.9624,-3.9639,-3.9635,-3.9629,-3.9693,-3.964,-3.9676,-3.9735,-3.9742,-3.9754,-3.9898,-3.9855,-3.9909,-3.9996,-4.0044,-4.0061,-4.0077,-4.0127,-4.0145,-3.992,-3.992,-3.9921,0,-3.9643,-3.9703,-3.9666,-3.9717,-3.9732,-3.967,-3.9734,-3.9741,-3.9758,-3.977,-3.9731,-3.9802,-3.9804,-3.9886,-3.9921,-3.9934,-3.9949,-3.9908,-4.0062,-4.0077,-4.0091,-4.0138,-4.0157,-3.9927,-3.9926,-3.9925,-3.9925,0,-3.98,-3.9843,-3.9893,-3.991,-3.9932,-3.9989,-3.9961,-3.9987,-3.9959,-3.9945,-4.0011,-4.0011,-4.0039,-4.0057,-4.003,-4.0136,-4.0114,-4.007,-3.9998,-4.0119,-4.0162,-4.018,-3.9936,-3.9933,-3.9932,-3.993,0,0,-3.9998,-3.9996,-4.0015,-4.0022,-4.0026,-4.0058,-4.0114,-4.0141,-4.0164,-4.0178,-4.0223,-4.0274,-4.0233,-4.0247,-4.022,-4.0263,-4.0376,-4.0213,-4.0213,-4.0242,-4.0492,-4.0523,-4.0545,-4.035,-4.0353,-4.0356,-4.049,0,-4.0132,-4.0225,-4.0194,-4.0288,-4.0327,-4.027,-4.0318,-4.0326,-4.0316,-4.0348,-4.0337,-4.0373,-4.0317,-4.0325,-4.0365,-4.0354,-4.0426,-4.0344,-4.0389,-4.0391,-4.0386,-4.0568,-4.0601,-4.0728,-4.0507,-4.051,-4.0512,0,-4.03,-4.0321,-4.0419,-4.0417,-4.0433,-4.0476,-4.0499,-4.053,-4.0539,-4.0529,-4.0545,-4.051,-4.0564,-4.0495,-4.0569,-4.0514,-4.0532,-4.053,-4.0534,-4.0534,-4.0457,-4.0571,-4.0768,-4.0786,-4.0539,-4.0537,-4.0535,0,-4.0432,-4.0486,-4.0551,-4.0559,-4.0559,-4.0591,-4.0593,-4.0597,-4.0616,-4.0637,-4.0649,-4.0676,-4.069,-4.0713,-4.0686,-4.0639,-4.0763,-4.0693,-4.0755,-4.0756,-4.0781,-4.0779,-4.0981,-4.0798,-4.0797,-4.0797,-4.0797,0,-4.0583,-4.0645,-4.061,-4.065,-4.0718,-4.0683,-4.0751,-4.0746,-4.0752,-4.0789,-4.0744,-4.0781,-4.0745,-4.0779,-4.0759,-4.0822,-4.083,-4.0822,-4.0816,-4.0825,-4.0825,-4.0833,-4.0822,-4.0802,-4.0801,-4.08,-4.0799,0,-4.074,-4.072,-4.0787,-4.0782,-4.0783,-4.0832,-4.0828,-4.0865,-4.0853,-4.0902,-4.0911,-4.0892,-4.0929,-4.0906,-4.0945,-4.0931,-4.1013,-4.0996,-4.101,-4.1004,-4.1067,-4.106,-4.1278,-4.1304,-4.1107,-4.1109,-4.111,0,-4.0837,-4.0883,-4.0884,-4.0906,-4.091,-4.0947,-4.0966,-4.0935,-4.0956,-4.0971,-4.1006,-4.104,-4.1064,-4.1127,-4.1117,-4.1146,-4.1127,-4.1202,-4.1131,-4.1139,-4.1125,-4.1122,-4.1125,-4.1215,-4.1217,-4.1219,-4.1221,0,-4.1009,-4.0997,-4.1026,-4.1052,-4.1076,-4.1096,-4.1111,-4.1132,-4.1101,-4.1128,-4.1165,-4.1185,-4.1225,-4.1258,-4.1283,-4.1285,-4.1248,-4.1244,-4.1259,-4.1267,-4.1272,-4.1268,-4.1045,-4.1238,-4.1236,-4.1235,-4.1234,-4.1233,-4.1137,-4.1175,-4.1181,-4.1215,-4.1224,-4.124,-4.1274,-4.1266,-4.1297,-4.1326,-4.1307,-4.1352,-4.136,-4.139,-4.1397,-4.1431,-4.1401,-4.1424,-4.1429,-4.1435,-4.1442,-4.127,-4.1436,-4.1436,-4.1435,-4.1435,-4.1435,0,-4.1304,-4.1306,-4.1338,-4.1361,-4.1388,-4.1353,-4.1368,-4.1393,-4.1433,-4.1444,-4.147,-4.1514,-4.1547,-4.154,-4.157,-4.1599,-4.1582,-4.1607,-4.1603,-4.1604,-4.1469,-4.1451,-4.162,-4.162,-4.162,-4.162,-4.162,-4.162,-4.1394,-4.1456,-4.1446,-4.1512,-4.1514,-4.1556,-4.1568,-4.1583,-4.1592,-4.1642,-4.167,-4.1665,-4.1669,-4.1699,-4.1728,-4.1725,-4.1737,-4.1768,-4.1759,-4.1632,-4.1614,-4.1596,-4.1579,-4.1772,-4.1772,-4.1891,-4.1892,-4.1893]},{"header":{"parameterUnit":"m.s-1","parameterCategory":1,"la1":30.2991,"la2":30.254,"lo1":-89.0895,"lo2":-89.0444,"dy":0.0017,"dx":0.0017,"nx":28,"ny":28,"refTime":"2023-03-21T21:00:00:Z","depth":0,"parameterNumber":3,"parameterNumberName":"V-component_of_WINDS"},"data":[0,0,0,0,0,0,0,0,0,0,0,0,0,0,0,0,0,0,0,0,0,0,0,0,0,0,0,0,0,0,0,0,0,0,0,0,0,0,0,0,0,0,0,0,0,0,0,0,0,0,0,0,0,0,0,0,0,0,-0.1571,-0.1572,0,-0.165,-0.1651,-0.1652,-0.1702,-0.1702,-0.1702,-0.1702,-0.1782,-0.1784,-0.1786,0,0,0,0,0,0,0,0,0,0,0,0,0,-0.146,-0.1462,-0.1571,-0.1572,-0.1573,-0.165,-0.1651,-0.1652,-0.1702,-0.1702,-0.1702,-0.1703,-0.1782,-0.1784,-0.1786,0,0,0,0,0,0,0,0,0,0,0,0,0,-0.1521,-0.1463,-0.157,-0.1607,-0.1611,-0.1649,-0.1651,-0.1652,-0.1702,-0.1702,-0.1702,-0.1703,-0.1781,-0.1784,-0.1786,-0.1795,0,0,-0.1795,-0.1796,0,0,0,0,0,0,0,0,-0.1517,-0.1525,-0.16,-0.1604,-0.1609,-0.1666,-0.1641,-0.17,-0.1701,-0.1667,-0.1703,-0.1703,-0.1743,-0.1749,-0.1763,-0.1798,-0.1802,-0.1795,-0.1797,-0.1798,-0.1799,0,0,0,0,0,0,0,-0.1513,-0.1522,-0.1602,-0.1601,-0.1607,-0.1618,-0.1627,-0.1653,-0.1702,-0.167,-0.1674,-0.1683,-0.1746,-0.176,-0.1765,-0.1803,-0.1795,-0.1797,-0.1799,-0.18,-0.1848,-0.1847,0,0,0,0,0,0,-0.1503,-0.1518,-0.1599,-0.1604,-0.1563,-0.162,-0.163,-0.1647,-0.1702,-0.171,-0.1682,-0.1685,-0.1755,-0.1762,-0.1768,-0.178,-0.1798,-0.18,-0.1802,-0.1848,-0.1848,-0.1847,0,0,0,0,0,0,-0.1501,-0.151,-0.1596,-0.1562,-0.1574,-0.1621,-0.164,-0.1649,-0.1663,-0.1711,-0.172,-0.1688,-0.1756,-0.1764,-0.1787,-0.1784,-0.1802,-0.1804,-0.1849,-0.1848,-0.1847,-0.1805,0,0,0,0,0,0,-0.1497,-0.1509,-0.1513,-0.1562,-0.1576,-0.1615,-0.164,-0.165,-0.1668,-0.1672,-0.1719,-0.1727,-0.1757,-0.1783,-0.179,-0.1788,-0.1806,-0.1849,-0.1848,-0.1848,-0.1807,-0.1803,-0.18,0,0,0,0,0,-0.1493,-0.1498,-0.1513,-0.1523,-0.1582,-0.1614,-0.1622,-0.1657,-0.1668,-0.1672,-0.1702,-0.1725,-0.1783,-0.1785,-0.1793,-0.1792,-0.1849,-0.1849,-0.1848,-0.1809,-0.1804,-0.18,0,0,0,0,0,0,-0.1447,-0.1505,-0.1522,-0.1543,-0.1574,-0.1623,-0.1629,-0.1651,-0.1679,-0.1681,-0.1723,-0.1733,-0.1752,-0.1775,-0.1775,-0.1802,-0.1819,-0.182,-0.1786,-0.1782,-0.1779,-0.1772,-0.1809,0,0,0,0,0,-0.144,-0.1462,-0.1511,-0.1525,-0.1539,-0.1581,-0.1597,-0.1621,-0.1654,-0.1667,-0.1699,-0.1729,-0.1754,-0.177,-0.1796,-0.1811,-0.1821,-0.1814,-0.181,-0.1807,-0.1807,-0.1815,-0.1812,-0.1844,-0.1844,-0.1844,0,0,-0.1424,-0.1458,-0.147,-0.1516,-0.1543,-0.1564,-0.1592,-0.1613,-0.1629,-0.167,-0.1693,-0.1718,-0.1755,-0.1773,-0.1783,-0.1793,-0.1801,-0.1806,-0.1803,-0.1805,-0.1814,-0.1811,-0.1808,-0.1844,-0.1844,-0.1844,0,0,-0.1406,-0.1435,-0.1449,-0.1474,-0.1514,-0.1542,-0.1545,-0.1591,-0.1609,-0.1633,-0.1664,-0.1683,-0.1726,-0.175,-0.1768,-0.1758,-0.178,-0.1765,-0.1746,-0.1754,-0.1751,-0.1749,-0.1744,-0.1742,-0.1765,-0.1765,-0.1765,0,-0.1381,-0.1415,-0.1453,-0.1472,-0.1491,-0.153,-0.1543,-0.1566,-0.1612,-0.1623,-0.1634,-0.1687,-0.1715,-0.1739,-0.1736,-0.175,-0.1754,-0.176,-0.1749,-0.1747,-0.1746,-0.1741,-0.1739,-0.1763,-0.1763,-0.1764,-0.1764,0,-0.1382,-0.1405,-0.1411,-0.1454,-0.1474,-0.149,-0.153,-0.1545,-0.1567,-0.1594,-0.1617,-0.1652,-0.1684,-0.1692,-0.1714,-0.1719,-0.1724,-0.1741,-0.1758,-0.174,-0.1736,-0.1735,-0.176,-0.1761,-0.1761,-0.1762,0,0,-0.1337,-0.1401,-0.1402,-0.1421,-0.1467,-0.1485,-0.1503,-0.1535,-0.1546,-0.1577,-0.1591,-0.1626,-0.1642,-0.1662,-0.1687,-0.1694,-0.1682,-0.171,-0.1712,-0.1703,-0.1688,-0.1673,-0.1671,-0.1697,-0.1697,-0.1697,-0.1684,0,-0.1325,-0.1359,-0.1393,-0.1414,-0.1435,-0.1471,-0.1486,-0.1515,-0.154,-0.1561,-0.1589,-0.1612,-0.1632,-0.1644,-0.1653,-0.1682,-0.1679,-0.1683,-0.171,-0.1711,-0.1698,-0.167,-0.1655,-0.1641,-0.1683,-0.1683,-0.1683,0,-0.1315,-0.1343,-0.1366,-0.1409,-0.1419,-0.1432,-0.1463,-0.1483,-0.1517,-0.1534,-0.1556,-0.1583,-0.1602,-0.1618,-0.1644,-0.1646,-0.1659,-0.1675,-0.1675,-0.1678,-0.1694,-0.167,-0.1637,-0.1634,-0.1681,-0.1682,-0.1682,0,-0.1278,-0.1322,-0.1341,-0.1357,-0.1407,-0.1415,-0.1437,-0.1471,-0.1488,-0.1515,-0.1526,-0.1555,-0.1571,-0.1593,-0.1626,-0.1635,-0.1648,-0.1667,-0.1662,-0.1661,-0.1662,-0.1661,-0.1629,-0.1673,-0.1673,-0.1673,-0.1673,0,-0.126,-0.1272,-0.1325,-0.1336,-0.1351,-0.139,-0.1403,-0.1427,-0.1457,-0.1473,-0.1507,-0.1521,-0.1565,-0.1585,-0.1611,-0.1628,-0.1635,-0.1649,-0.1655,-0.1645,-0.1643,-0.1653,-0.1654,-0.1672,-0.1672,-0.1673,-0.1673,0,-0.122,-0.1256,-0.1279,-0.1325,-0.1337,-0.1346,-0.1385,-0.1397,-0.1424,-0.1444,-0.1451,-0.1493,-0.1517,-0.1553,-0.1588,-0.1606,-0.1618,-0.1629,-0.1606,-0.161,-0.1602,-0.1601,-0.1574,-0.1572,-0.1618,-0.1618,-0.1617,0,-0.1206,-0.1216,-0.1263,-0.1276,-0.1297,-0.1318,-0.1335,-0.1374,-0.139,-0.1428,-0.1435,-0.1462,-0.1486,-0.1523,-0.1556,-0.1583,-0.1594,-0.1583,-0.1598,-0.1587,-0.1592,-0.159,-0.159,-0.1579,-0.1578,-0.1577,-0.1577,0,-0.1175,-0.1192,-0.1216,-0.1245,-0.1264,-0.1289,-0.1316,-0.1325,-0.1369,-0.1385,-0.141,-0.1429,-0.1464,-0.149,-0.1521,-0.1543,-0.1566,-0.1572,-0.1572,-0.156,-0.1546,-0.1552,-0.1594,-0.1572,-0.1573,-0.1573,-0.1573,-0.1573,-0.1147,-0.1157,-0.1191,-0.1216,-0.124,-0.1263,-0.1277,-0.1305,-0.1327,-0.1359,-0.138,-0.1404,-0.1436,-0.148,-0.15,-0.1519,-0.1529,-0.1529,-0.1529,-0.1528,-0.1523,-0.1544,-0.1525,-0.1525,-0.1525,-0.1525,-0.1526,0,-0.1116,-0.114,-0.1162,-0.1198,-0.1217,-0.1239,-0.1269,-0.1283,-0.1303,-0.1332,-0.1354,-0.1382,-0.1407,-0.1442,-0.1469,-0.1477,-0.1488,-0.1483,-0.1482,-0.1486,-0.1514,-0.151,-0.1473,-0.1473,-0.1473,-0.1473,-0.1473,-0.1473,-0.1103,-0.112,-0.1141,-0.1171,-0.1195,-0.1218,-0.1233,-0.1255,-0.1277,-0.1307,-0.1328,-0.1351,-0.1381,-0.1411,-0.1434,-0.1444,-0.1451,-0.1442,-0.1454,-0.1479,-0.1484,-0.1489,-0.1485,-0.1443,-0.1443,-0.1425,-0.1424,-0.1424]}]]